User: anonymous   Login
Location: Newark
(55.7681°N, 37.7103°E)
Time: 00:44:44
(UTC+00:00)
Language:

AIST 2D - Orbit

View from above orbital plane
View from above orbital plane
View from above satellite
View from above satellite

Ground track
Ground track

The orbit data is extracted from the following two-line orbital elements,

1 41465U 16026B   19341.40893345  .00000950  00000-0  30960-4 0  9995
2 41465  97.1705 232.0102 0009828 218.1256 251.3389 15.34199018201828
Epoch (UTC): 07 December 2019 09:48:51
Eccentricity: 0.0009828
inclination: 97.1705°
perigee height: 456 km
apogee height: 470 km
right ascension of ascending node: 232.0102°
argument of perigee: 218.1256°
revolutions per day: 15.34199018
mean anomaly at epoch: 251.3389°
orbit number at epoch: 20182

The dashed part of the orbit path shows where the satellite is in the earth's shadow,  

DLR